Location: ???????
(55.4362°N, 38.1183°E)
Time: 18:14:41
(UTC+00:00)

EO 1 Del DPAF - Pass Details

Date: 17 June 2021
Orbit: 506 x 507 km, 98.0° (Epoch: 30 July)

Event Time Altitude Azimuth Distance (km) Brightness Sun altitude
Rises 22:48:56 0° 11° (N) 2,627 9.0 -9.3°
Reaches altitude 10° 22:51:05 10° 5° (N) 1,736 7.3 -9.2°
Maximum altitude 22:54:38 44° 293° (WNW) 719 3.9 -9.1°
Enters shadow 22:58:05 11° 221° (SW) 1,685 5.2 -8.9°
